Regional Weather Roundup
Issued by NWS Goodland, KS

Home | Current Version | Previous Version | Graphics & Text | Print | Product List | Glossary On
Versions: 1 2 3 4 5 6 7 8 9 10 11 12 13 14 15 16 17 18 19 20 21 22 23 24 25 26 27 28 29 30 31 32 33 34 35 36 37 38 39 40 41 42 43 44 45 46 47 48 49 50
000
ASUS43 KGLD 200308
RWRGLD

GOODLAND FORECAST AREA HOURLY WEATHER ROUNDUP
NATIONAL WEATHER SERVICE GOODLAND KS
900 PM MDT FRI SEP 19 2014

...OFFICIAL OBSERVATIONS...

CITY           SKY/WX    TMP DP  RH WIND       PRES   REMARKS
GOODLAND KS    CLEAR     71  59  65 S12       29.94R
HILL CITY KS   PTCLDY    76  59  55 S8        29.90R
IMPERIAL NEB   CLOUDY    77  59  53 S9        29.88R
MCCOOK NEB     PTCLDY    78  59  51 S12       29.86R
AKRON CO       PTCLDY    71  46  40 N12       29.99R
BURLINGTON CO  CLEAR     72  57  59 S13       29.96R
LIMON CO       CLEAR     58  40  51 N6        30.03R
$$

...UNOFFICIAL OBSERVATIONS...

CITY           SKY/WX    TMP DP  RH WIND       PRES   REMARKS
COLBY KS       CLEAR     75  63  64 S14G20    29.93S
GOVE KS          N/A     74  32  21 MISG        N/A
NORTON KS      CLEAR     73  54  49 SE7       29.88
SHARON SPRINGS   N/A     73  62  68 S12         N/A
WAKEENEY KS      N/A     76  54  45 MISG        N/A
TRENTON NEB      N/A     74  32  21 S9          N/A
KIT CARSON CO    N/A     74  58  56 N10         N/A
YUMA CO          N/A     72  49  43 CALM        N/A
$$


USA.gov is the U.S. government's official web portal to all federal, state and local government web resources and services.